This is the latest recevied weather packets stored in our database for station/object K8RRT. If no packets are shown the sender has not sent any weather packets the latest 10 day(s).
| Time | Temp. | Humidity | Pressure | Rain* | Wind** | Luminosity | Snow |
|---|---|---|---|---|---|---|---|
| 1778100129 | 13.89° C | 92% | 1007.9 hPa | 0 mm | - | 76 W/m² | - |
| 1778099827 | 14.44° C | 92% | 1007.6 hPa | 0 mm | - | 137 W/m² | - |
| 1778099524 | 13.89° C | 92% | 1007.9 hPa | 0 mm | - | 180 W/m² | - |
| 1778099222 | 13.89° C | 93% | 1007.8 hPa | 0 mm | - | 124 W/m² | - |
| 1778098917 | 13.89° C | 93% | 1007.6 hPa | 0 mm | - | 165 W/m² | - |
| 1778098615 | 13.89° C | 94% | 1008 hPa | 0 mm | - | 209 W/m² | - |
| 1778098311 | 13.89° C | 94% | 1007.8 hPa | 0 mm | - | 205 W/m² | - |
| 1778098008 | 13.89° C | 94% | 1008.1 hPa | 0 mm | - | 297 W/m² | - |
| 1778097705 | 13.33° C | 94% | 1008 hPa | 0 mm | - | 196 W/m² | - |
| 1778097401 | 13.33° C | 94% | 1008 hPa | 0 mm | - | 189 W/m² | - |
| 1778097098 | 13.33° C | 94% | 1008 hPa | 0 mm | - | 183 W/m² | - |
| 1778096795 | 13.33° C | 96% | 1007.8 hPa | 0 mm | - | 169 W/m² | - |
| 1778096491 | 12.78° C | 97% | 1007.7 hPa | 0 mm | - | 167 W/m² | - |
| 1778096189 | 12.78° C | 98% | 1007.7 hPa | 0 mm | - | 166 W/m² | - |
| 1778095886 | 12.78° C | 99% | 1007.8 hPa | 0 mm | - | 179 W/m² | - |
| 1778095583 | 12.22° C | 99% | 1007.8 hPa | 0 mm | - | 161 W/m² | - |
| 1778095279 | 12.22° C | 99% | 1007.6 hPa | 0 mm | - | 161 W/m² | - |
| 1778094976 | 12.22° C | 99% | 1007.7 hPa | 0 mm | - | 210 W/m² | - |
| 1778094672 | 12.22° C | 99% | 1007.5 hPa | 0 mm | - | 253 W/m² | - |
| 1778094369 | 12.22° C | 99% | 1007.5 hPa | 0 mm | - | 209 W/m² | - |
| 1778094066 | 12.22° C | 99% | 1007.8 hPa | 0 mm | - | 112 W/m² | - |
| 1778093763 | 12.22° C | 99% | 1007.8 hPa | 0 mm | - | 161 W/m² | - |
| 1778093459 | 12.22° C | 99% | 1007.6 hPa | 0 mm | - | 143 W/m² | - |
| 1778093157 | 12.22° C | 99% | 1007.8 hPa | 0 mm | - | 142 W/m² | - |
| 1778092854 | 12.22° C | 99% | 1007.7 hPa | 1.27 mm | - | 171 W/m² | - |
* Rain latest hour (hover to see other rain measurements)
** Current wind speed in m/s (hover to see current wind gust speed)